Hinckley, MN

4:39 AM CDT on August 18, 2019 (GMT -0500)
Hinckley

Weather History for K04W - July, 2019

Change the Weather History Date:

Sunday, July 21, 2019

  Actual Average (KJMR) Record (KJMR)
Temperature  
Mean Temperature 65 °F -  
Max Temperature 77 °F 82 °F 95 °F (1955)
Min Temperature 53 °F 53 °F 40 °F (1988)
Growing Degree Days 15 (Base 50)    
Moisture  
Dew Point 58 °F    
Average Humidity 75    
Maximum Humidity 100    
Minimum Humidity 53    
Precipitation  
Precipitation 0.00 in - - ()
Sea Level Pressure  
Sea Level Pressure 30.08 in    
Wind  
Wind Speed 3 mph (North)    
Max Wind Speed 10 mph    
Max Gust Speed -    
Visibility 10 miles    
Events      
Averages and records for this station are not official NWS values.
T = Trace of Precipitation, MM = Missing Value Source: NWS Daily Summary

Daily Weather History Graph

Daily Weather History Graph

Search for Another Location

Airport or City:

Astronomy

Jul. 21, 2019 Rise Set
Actual Time 5:41 AM CDT 8:54 PM CDT
Civil Twilight 5:05 AM CDT 9:30 PM CDT
Nautical Twilight 4:18 AM CDT 10:16 PM CDT
Astronomical Twilight 3:19 AM CDT 11:14 PM CDT
Moon 11:35 PM CDT (7/21) 10:14 AM CDT (7/21)
Length of Visible Light 16h 24m
Length of Day
15h 12m
Waning Gibbous, 80% of the Moon is Illuminated
Jul 21
Waning Gibbous
Jul 24
Last Quarter
Jul 31
New
Aug 7
First Quarter
Aug 15
Full

Hourly Weather History & Observations

Time (CDT) Temp. Dew Point Humidity Pressure Visibility Wind Dir Wind Speed Gust Speed Precip Events Conditions
12:59 AM 62.6 °F 59.0 °F 88% 30.00 in 10.0 mi Calm Calm - N/A   Clear
1:59 AM 57.2 °F 57.2 °F 100% 30.02 in 10.0 mi Calm Calm - N/A   Clear
2:59 AM 55.4 °F 55.4 °F 100% 30.02 in 10.0 mi Calm Calm - N/A   Clear
3:59 AM 53.6 °F 53.6 °F 100% 30.02 in 10.0 mi Calm Calm - N/A   Clear
4:59 AM 53.6 °F 53.6 °F 100% 30.03 in 10.0 mi Calm Calm - N/A   Clear
5:59 AM 55.4 °F 55.4 °F 100% 30.04 in 10.0 mi Calm Calm - N/A   Clear
6:59 AM 59.0 °F 57.2 °F 94% 30.05 in 10.0 mi North 5.8 mph - N/A   Clear
7:59 AM 64.4 °F 59.0 °F 83% 30.06 in 10.0 mi North 4.6 mph - N/A   Clear
8:59 AM 68.0 °F 59.0 °F 73% 30.08 in 10.0 mi Calm Calm - N/A   Clear
9:59 AM 71.6 °F 59.0 °F 64% 30.09 in 10.0 mi NW 3.5 mph - N/A   Clear
10:59 AM 73.4 °F 59.0 °F 61% 30.11 in 10.0 mi NNW 5.8 mph - N/A   Clear
11:59 AM 75.2 °F 57.2 °F 53% 30.11 in 10.0 mi NNW 9.2 mph - N/A   Scattered Clouds
12:59 PM 77.0 °F 59.0 °F 54% 30.10 in 10.0 mi North 9.2 mph - N/A   Scattered Clouds
1:59 PM 73.4 °F 59.0 °F 61% 30.10 in 10.0 mi North 5.8 mph - N/A   Mostly Cloudy
2:59 PM 75.2 °F 59.0 °F 57% 30.09 in 10.0 mi NNW 5.8 mph - N/A   Mostly Cloudy
3:59 PM 77.0 °F 59.0 °F 54% 30.08 in 10.0 mi North 6.9 mph - N/A   Scattered Clouds
4:59 PM 73.4 °F 59.0 °F 61% 30.09 in 10.0 mi NNE 10.4 mph - N/A   Overcast
5:59 PM 73.4 °F 59.0 °F 61% 30.09 in 10.0 mi North 9.2 mph - N/A   Mostly Cloudy
6:59 PM 73.4 °F 59.0 °F 61% 30.11 in 10.0 mi NNE 3.5 mph - N/A   Clear
7:59 PM 69.8 °F 60.8 °F 73% 30.11 in 10.0 mi Calm Calm - N/A   Overcast
8:59 PM 68.0 °F 59.0 °F 73% 30.13 in 10.0 mi NW 5.8 mph - N/A   Mostly Cloudy
9:59 PM 66.2 °F 57.2 °F 73% 30.14 in 10.0 mi NNW 4.6 mph - N/A   Clear
10:59 PM 64.4 °F 55.4 °F 73% 30.15 in 10.0 mi North 8.1 mph - N/A   Mostly Cloudy
11:59 PM 60.8 °F 53.6 °F 77% 30.16 in 10.0 mi North 4.6 mph - N/A   Clear